Theta_e
317 314 312 313 318 326 331 334 336 335 335 333 333 332 330 330 331 332 334 336 336 335 332 329 326 324 320 316 312 310 311 311 311 311 312 315 320 322 324 324 321 323 328 330 329 325 320 319 316 313 311 310 311 310 311 312 313 313 315 317 319 321 323 324 324 325 327 329 329 329 329 329 329 328 327 324 324 326 327 327 328 328 327 326 325
317 314 312 313 317 326 331 334 335 334 334 334 333 332 331 331 331 332 334 335 334 333 332 331 328 325 320 315 312 311 312 312 312 312 311 311 313 316 317 316 316 318 319 320 321 320 315 315 316 314 312 311 311 311 311 312 313 315 316 318 321 323 324 324 323 324 326 326 327 327 328 328 327 327 327 325 323 323 324 324 323 323 323 323 321
317 315 312 312 314 322 331 333 334 333 332 333 332 331 331 331 332 332 333 333 332 331 330 329 327 323 318 314 312 312 312 312 312 312 312 311 312 313 313 313 313 316 317 318 320 319 317 317 315 312 311 311 311 311 312 313 313 314 315 317 321 324 324 324 323 322 322 323 323 323 324 323 321 319 318 318 319 320 321 320 318 318 318 319 319
316 314 311 311 312 318 328 331 332 331 331 331 331 331 331 332 333 333 332 331 330 330 327 324 323 319 316 314 316 316 314 313 312 312 312 312 311 311 311 312 311 314 318 319 320 319 321 321 314 310 311 311 312 312 312 312 312 312 313 316 319 323 323 323 323 322 322 323 323 323 322 320 318 315 313 313 312 314 316 316 314 312 312 312 313
315 312 310 310 310 313 320 326 328 330 329 329 330 330 331 331 333 333 332 331 330 329 325 321 318 315 314 314 317 317 316 314 313 313 312 312 312 311 311 311 311 312 316 318 319 320 322 319 312 313 317 318 317 314 311 310 311 311 312 314 318 323 324 324 324 324 325 325 325 323 322 320 318 316 315 315 311 309 309 310 310 309 308 307 307
313 311 310 309 310 310 314 319 323 328 328 326 328 328 329 330 333 333 332 330 329 328 323 319 314 312 314 316 315 314 313 313 313 313 312 312 312 312 312 311 311 311 312 315 318 321 321 317 314 317 320 319 318 315 312 311 311 311 311 313 317 321 325 326 326 326 326 326 325 324 322 320 319 318 317 317 312 308 307 306 307 307 307 306 306
311 311 309 309 310 310 312 314 317 325 329 327 327 327 328 331 332 333 332 329 327 325 321 315 312 312 315 316 313 311 312 312 312 312 312 312 312 312 312 312 311 311 312 314 319 322 320 318 319 319 317 316 317 314 311 311 312 311 312 313 315 318 321 323 324 324 324 323 323 322 321 321 320 319 319 318 312 308 306 306 306 306 306 306 305
311 310 309 309 309 310 311 313 315 321 328 327 325 327 328 330 331 332 330 327 324 320 317 314 314 314 313 312 311 312 312 311 312 312 312 311 312 312 312 312 312 311 311 313 318 321 319 319 320 320 318 317 317 314 312 311 312 312 313 315 316 316 317 318 319 320 319 318 317 315 315 315 315 315 315 316 312 307 306 306 306 306 306 305 306
311 310 309 309 308 311 312 316 318 318 325 324 323 328 328 330 330 329 327 324 319 315 314 313 318 319 314 311 314 314 312 311 312 311 312 311 311 312 312 312 312 312 311 312 316 319 318 317 317 317 316 315 313 314 314 312 313 313 314 315 316 317 317 318 318 318 316 315 313 311 311 310 310 312 312 312 309 306 306 306 306 306 306 306 309
311 310 309 309 309 312 313 320 322 320 326 325 326 330 328 328 329 327 324 321 315 313 312 312 321 323 318 314 316 318 315 311 311 311 311 312 312 314 314 313 312 312 312 314 316 319 318 315 316 317 315 312 312 313 314 313 313 313 314 314 315 316 317 317 317 316 315 315 313 310 311 310 309 311 310 308 307 306 306 306 306 305 306 306 309
311 310 309 309 309 311 313 319 322 324 329 328 329 330 327 326 325 323 319 316 312 312 312 312 320 323 321 320 321 322 319 313 310 311 312 314 315 315 314 313 312 312 311 314 317 320 319 317 317 316 314 312 312 313 313 313 313 313 313 314 314 315 315 315 315 315 314 314 313 311 311 310 309 312 310 307 306 306 306 306 306 305 306 305 308
312 311 310 309 309 310 312 315 319 324 327 329 330 327 324 321 318 316 313 311 310 312 313 315 319 321 322 323 323 319 316 313 310 310 311 314 314 313 312 312 312 311 310 311 316 319 318 317 315 313 313 313 313 313 313 313 313 313 313 314 314 314 314 314 314 314 314 313 312 311 311 310 310 312 311 308 306 306 307 306 307 305 306 305 308
313 311 310 309 308 309 311 314 317 322 325 328 328 322 319 317 314 311 310 309 310 313 315 314 316 319 322 323 321 314 312 316 316 311 309 311 311 311 311 312 312 311 310 309 312 316 318 317 314 313 313 313 313 313 314 314 313 314 314 314 314 314 314 314 314 313 314 313 312 310 310 310 310 312 314 314 311 308 307 307 307 306 306 306 307
315 312 310 310 309 309 310 313 316 320 324 326 323 317 315 313 311 309 309 309 310 312 313 311 312 317 321 322 319 313 312 319 321 313 309 309 309 310 310 310 311 311 310 311 311 314 317 316 314 313 313 313 314 314 314 314 314 314 314 314 314 314 314 314 314 313 314 312 311 310 309 309 311 315 316 315 312 308 308 307 307 307 306 307 307
315 313 311 310 310 309 310 311 313 316 320 320 316 314 312 310 309 309 308 309 310 311 310 310 311 313 316 319 318 315 313 314 317 313 309 309 308 309 309 309 310 310 310 311 312 313 314 314 314 313 314 314 314 314 314 314 314 314 315 315 315 314 315 314 314 314 313 312 311 310 310 309 312 316 315 313 312 311 309 307 307 307 307 307 307
316 314 312 311 310 310 309 310 310 312 315 315 313 312 310 309 309 309 309 309 310 310 309 309 310 310 311 314 314 314 313 311 311 310 309 309 308 309 308 309 309 310 311 312 313 313 313 313 314 314 314 314 314 314 314 315 315 315 315 315 316 315 315 315 315 314 313 313 312 312 312 311 312 315 314 312 312 311 308 307 307 306 307 307 307
316 315 314 312 311 311 310 310 309 310 311 311 311 310 309 309 310 309 310 310 310 309 309 309 309 310 309 309 310 310 312 313 311 309 309 308 308 309 308 309 309 310 311 313 313 314 314 314 314 314 314 314 315 315 315 315 316 316 316 317 317 316 317 317 316 316 315 315 314 314 314 314 314 315 314 313 312 309 307 307 307 307 307 307 307
318 317 316 314 312 311 310 310 310 310 310 309 309 309 309 310 310 310 310 310 309 309 309 309 309 309 309 308 309 308 310 312 311 309 309 309 308 308 308 308 309 310 311 313 314 314 315 315 315 315 315 315 316 316 316 316 316 316 317 317 317 318 318 318 318 318 318 317 317 316 316 316 316 316 316 316 315 311 309 308 308 308 308 308 308
320 319 318 317 315 313 311 310 310 310 310 310 310 309 310 310 310 310 310 309 309 309 309 309 309 309 308 308 308 308 308 308 309 308 308 308 308 308 308 308 309 310 311 312 313 314 315 316 316 316 316 316 316 317 317 317 317 317 317 318 318 318 318 318 319 319 319 318 318 318 318 318 317 318 318 318 317 316 315 314 313 313 312 313 312
321 321 320 320 318 316 313 311 310 310 310 310 310 310 310 310 310 310 310 310 310 310 309 309 309 308 308 308 308 308 308 308 308 308 307 308 307 307 308 308 308 309 310 311 312 314 315 315 315 316 316 316 317 317 317 317 317 317 317 318 318 318 318 318 318 318 318 319 319 319 319 319 318 319 319 319 318 318 318 318 318 318 317 318 318
322 322 322 321 320 320 317 314 313 312 312 311 312 312 313 313 313 313 313 313 312 312 311 311 310 310 309 309 309 308 308 308 308 307 307 307 307 307 307 307 308 308 309 311 312 313 314 315 315 315 316 316 316 317 317 316 317 317 317 317 317 317 317 317 317 317 318 318 318 318 318 319 319 319 319 319 319 319 318 319 319 319 319 319 319
323 322 323 322 322 321 320 318 316 315 315 314 315 315 316 317 317 317 316 316 315 315 314 314 313 312 312 311 310 310 309 309 309 309 308 308 308 307 307 307 307 307 308 309 310 312 313 313 314 314 315 315 315 315 315 315 316 316 316 316 316 316 316 316 317 317 317 317 318 318 318 318 318 318 319 319 320 320 319 319 319 319 319 318 318
322 322 323 322 322 322 322 321 319 318 317 317 318 318 319 320 321 321 320 320 319 318 318 317 316 316 315 314 313 313 312 312 312 311 311 310 310 309 308 308 307 307 307 308 309 310 311 312 313 313 313 314 314 314 314 314 315 315 315 315 316 316 316 316 317 317 317 317 318 318 318 318 318 318 319 320 321 321 320 320 320 319 319 319 319
322 322 322 322 322 322 322 322 322 321 319 319 319 319 321 322 323 324 324 323 323 322 321 320 319 319 318 317 317 316 316 316 315 315 315 313 312 312 311 310 309 308 307 307 308 309 310 310 311 311 312 313 313 314 314 315 315 315 315 315 316 316 317 317 317 317 318 318 318 318 318 318 318 318 319 320 321 321 321 321 321 320 320 320 320
321 321 322 321 320 320 322 323 323 323 322 321 320 320 321 323 324 325 326 325 325 325 324 323 322 321 320 320 319 319 318 318 318 318 318 317 317 317 315 315 314 312 311 310 310 310 311 311 312 313 313 314 315 315 315 316 316 316 316 316 317 317 317 318 318 318 319 319 320 320 320 320 320 319 319 320 320 321 322 322 321 321 321 321 321
322 322 321 321 320 319 320 322 323 323 323 323 322 322 321 323 324 325 326 326 326 326 325 325 324 324 323 323 323 321 321 320 320 320 320 320 321 321 320 320 319 318 317 316 315 315 315 316 316 316 317 317 317 317 317 317 317 318 318 318 318 318 319 319 320 320 321 322 322 322 322 322 321 321 321 321 321 321 322 322 321 321 322 322 322
325 323 322 322 321 320 319 321 322 323 324 324 324 324 323 324 324 325 326 326 326 325 326 325 325 325 325 326 325 324 324 323 323 322 322 322 323 323 323 323 323 322 322 321 321 321 321 321 321 321 321 321 321 321 321 321 321 321 321 321 321 321 321 322 322 322 323 323 323 323 322 322 322 322 322 322 322 322 321 322 322 322 322 322 323
327 326 325 323 322 321 320 319 321 322 323 324 324 324 324 324 324 325 325 325 325 325 325 325 326 326 326 326 326 326 326 325 326 325 324 324 325 326 326 326 326 325 325 324 325 324 324 324 324 325 325 325 325 324 324 324 324 324 324 324 324 324 324 323 324 324 324 323 323 322 322 322 322 322 322 322 322 321 321 321 321 321 321 321 322
328 327 327 325 324 323 321 319 319 321 322 323 324 323 324 324 324 324 325 325 325 325 325 325 325 325 326 326 326 327 327 327 327 326 326 326 326 327 327 327 326 326 327 327 326 326 326 326 326 326 326 326 325 325 325 324 324 324 324 324 324 324 324 324 324 324 324 323 323 323 323 323 323 323 323 323 322 322 321 321 321 321 321 321 322
328 328 327 326 326 324 322 320 319 320 322 322 323 323 323 323 324 324 324 325 324 325 325 324 324 324 325 325 326 326 326 327 327 327 327 327 327 327 327 327 327 327 327 327 327 327 326 326 326 326 325 325 325 325 325 324 324 324 324 323 323 323 323 323 323 324 324 323 323 323 323 323 323 323 324 324 323 323 322 321 321 321 321 321 322
327 328 327 327 327 326 323 321 320 320 321 322 322 323 323 323 323 324 324 324 324 324 324 324 324 324 324 325 325 325 326 326 326 326 326 327 327 327 327 327 327 327 327 327 327 326 325 325 325 324 323 323 324 324 324 323 323 323 323 324 324 323 323 323 323 323 323 323 323 323 322 322 322 322 323 323 323 324 323 322 322 322 322 322 322
327 327 327 327 327 326 324 323 321 321 322 322 322 322 323 323 323 323 324 324 324 324 324 324 324 324 324 324 324 324 325 325 325 326 326 326 326 326 326 326 327 327 327 327 326 326 325 324 324 323 323 323 324 324 322 322 321 321 321 322 323 323 323 323 323 323 323 323 323 323 322 321 321 322 321 320 321 322 323 323 323 323 323 323 322
327 327 327 327 326 326 325 324 323 322 323 322 322 322 322 323 324 324 324 324 324 324 324 324 324 325 324 324 324 324 324 324 324 325 325 325 325 325 325 326 326 326 327 327 326 326 326 325 324 323 323 323 323 323 321 321 320 320 320 321 322 323 323 322 322 323 323 323 322 321 320 320 321 321 320 319 319 321 323 323 323 323 323 323 323
326 327 327 327 326 326 326 325 325 324 323 323 323 323 323 323 324 324 324 324 324 324 324 325 325 325 325 324 324 324 324 324 324 324 324 323 323 324 324 324 324 325 325 325 326 326 325 325 324 323 323 322 323 323 321 321 320 320 321 322 323 323 322 320 320 323 323 321 320 319 319 321 321 320 320 320 321 322 322 322 322 322 322 323 323
325 326 327 326 327 326 326 325 325 325 324 324 324 323 323 323 324 323 324 324 324 324 324 324 324 325 325 324 324 324 324 324 325 324 324 323 322 322 322 322 322 322 322 323 323 324 324 323 322 322 322 322 323 321 321 321 319 319 320 321 321 321 320 319 319 321 321 319 319 319 320 321 320 320 320 322 322 322 322 321 320 321 322 322 323
323 324 325 326 326 326 326 325 324 324 324 324 324 324 323 323 323 323 323 324 324 324 324 324 324 324 324 324 324 324 324 325 325 325 324 323 321 321 322 322 322 321 321 321 321 322 322 322 321 321 320 319 319 319 320 320 319 318 319 319 319 319 319 320 319 319 318 318 318 318 320 321 320 320 321 321 321 321 320 319 319 320 321 321 322
322 323 324 325 326 325 325 325 324 323 324 324 324 323 323 323 323 323 323 323 324 324 324 324 324 324 323 323 324 324 324 324 324 324 324 324 324 322 322 322 322 321 321 320 320 321 321 320 320 320 319 318 319 320 320 320 320 320 319 318 318 319 321 322 321 320 319 319 319 320 320 320 320 319 319 319 319 319 319 317 316 317 319 320 321
322 323 324 324 325 325 325 325 324 323 323 323 323 323 323 323 323 323 323 323 323 324 324 324 324 324 324 323 324 325 325 324 324 324 324 325 325 324 323 322 321 320 320 320 320 321 320 320 319 319 319 320 321 322 321 321 321 320 319 319 320 321 322 324 324 322 320 320 321 320 319 319 319 318 318 317 317 318 318 317 316 315 316 318 319
322 322 323 324 325 326 326 325 325 324 323 323 323 324 324 324 324 324 324 323 323 324 324 324 324 324 324 324 325 326 326 326 326 326 325 325 325 325 325 324 323 322 322 322 322 321 320 321 320 319 321 322 323 323 323 322 321 320 319 319 321 321 321 322 322 322 320 319 319 317 316 318 318 318 317 316 316 316 318 318 317 316 315 315 316
320 321 322 323 325 326 326 326 325 324 323 323 323 324 324 324 324 324 323 323 324 324 324 323 323 323 324 325 326 327 327 327 326 326 325 325 325 325 325 325 324 324 324 324 323 322 320 322 323 321 321 323 324 325 324 323 322 322 318 318 321 322 319 318 319 320 319 316 316 316 317 317 317 317 315 314 313 315 316 316 315 314 314 313 313
319 320 321 322 323 325 326 325 325 325 324 322 322 322 323 323 323 323 322 323 325 325 325 323 322 322 323 325 326 326 326 326 326 326 325 325 325 325 325 326 325 325 325 323 323 323 322 324 326 323 321 322 324 324 324 323 324 324 319 317 322 322 319 317 317 317 316 315 316 317 316 315 315 315 312 312 312 312 312 312 311 311 311 311 311
317 318 319 320 321 323 324 324 324 324 323 321 321 320 320 320 321 321 322 323 324 324 324 324 324 323 323 324 324 325 325 325 324 324 325 326 326 326 325 325 325 324 324 323 324 323 322 324 325 323 322 322 323 324 325 326 326 324 320 319 322 320 316 316 317 316 315 315 315 315 314 313 313 312 311 310 310 310 310 309 308 308 308 307 308
315 316 317 317 319 320 322 323 324 323 321 321 320 320 319 320 322 321 323 324 324 324 324 325 326 326 326 325 324 324 323 323 325 325 325 324 324 325 323 323 324 323 323 324 322 321 323 325 323 321 321 322 324 326 326 327 325 323 322 322 322 318 315 316 315 313 314 314 313 312 311 311 311 310 309 308 307 307 306 305 305 304 304 303 303
314 315 316 316 317 318 319 321 321 321 320 320 320 321 323 324 325 325 324 325 324 324 325 325 325 326 327 326 325 324 324 323 324 325 324 323 325 327 324 324 325 323 323 323 321 321 323 324 321 320 322 323 325 326 326 326 324 322 323 323 321 318 318 317 316 314 313 312 311 310 310 309 308 307 306 305 305 304 303 302 302 301 301 300 300
313 313 314 314 315 315 317 318 319 319 319 319 321 324 327 328 328 328 326 325 324 323 324 324 323 323 324 324 323 323 324 324 323 322 322 323 326 328 325 326 326 323 321 321 322 322 322 322 321 322 323 323 324 326 326 325 323 321 321 321 319 318 318 318 317 316 314 311 310 309 308 307 306 305 304 304 303 302 302 301 301 300 300 300 299
313 313 313 313 313 313 314 316 318 318 318 319 321 325 328 329 329 328 326 324 322 320 320 321 321 322 322 322 321 320 322 322 324 326 324 323 324 323 322 325 327 325 321 320 323 325 324 325 325 325 324 322 321 321 321 320 320 319 318 318 317 317 318 318 317 317 314 311 309 307 305 303 304 302 302 303 302 302 301 300 300 300 299 299 298
313 313 313 313 313 313 313 314 316 317 317 318 321 325 328 329 328 327 325 323 321 319 319 320 321 322 322 322 321 320 321 321 324 326 323 322 324 323 324 326 328 327 321 320 325 328 328 328 327 327 326 322 318 317 317 315 315 315 314 314 313 314 316 316 316 315 313 310 306 304 302 300 300 300 300 300 300 300 299 299 299 299 298 298 298
313 313 314 314 313 313 313 314 315 315 317 318 320 323 325 326 326 326 325 323 321 320 321 322 324 324 323 322 321 321 321 322 322 321 320 325 329 328 327 325 324 324 322 324 326 325 325 325 323 322 321 319 316 315 314 313 312 311 311 311 311 311 312 312 312 312 310 307 303 300 300 298 299 299 298 298 298 298 298 298 298 298 298 298 297
313 313 313 314 314 313 313 314 314 315 316 318 320 322 324 325 326 326 326 324 322 323 323 324 324 324 323 323 323 322 322 323 322 320 321 326 329 327 325 324 323 323 325 325 322 319 319 318 317 317 316 315 314 312 311 311 311 310 310 309 309 309 308 308 307 305 303 301 299 298 298 298 299 299 298 297 298 298 297 297 298 297 297 297 297
313 313 313 313 314 314 314 314 314 315 315 317 319 320 323 325 326 327 326 325 325 325 325 326 325 325 324 323 323 323 323 323 320 319 320 321 322 323 322 322 322 322 322 320 318 317 316 315 315 315 313 312 311 310 310 309 309 308 308 307 306 305 304 303 301 299 298 298 297 297 297 297 298 299 298 298 297 297 297 297 297 297 296 296 296
313 314 313 313 313 313 314 314 314 315 315 316 317 319 321 323 325 325 326 326 326 326 326 326 326 326 324 323 323 323 323 321 318 318 319 318 319 321 321 320 319 318 317 315 314 314 313 313 312 311 310 310 309 308 307 307 306 305 305 304 303 301 300 299 298 297 297 296 296 297 297 297 297 298 298 298 298 297 297 297 297 296 296 296 295
Wind_Speed
12 11 10 11 12 10 9 7 6 5 4 4 4 5 6 6 6 6 6 6 5 5 5 5 6 7 7 8 9 10 11 11 10 9 8 9 9 9 10 9 10 10 10 9 6 4 4 6 8 8 9 10 10 10 11 11 12 13 12 13 13 13 13 13 13 14 15 15 15 14 14 14 14 14 13 10 7 9 9 9 9 9 9 9 7
11 12 11 12 13 11 10 8 6 6 5 5 5 5 6 6 6 6 6 5 4 3 4 4 5 6 6 7 8 10 12 11 11 11 10 9 10 9 8 8 8 8 7 7 6 6 6 7 8 9 9 10 10 10 10 11 12 12 12 12 13 13 12 12 12 13 13 13 13 13 13 12 12 11 12 10 6 6 6 6 6 5 6 6 6
10 11 10 12 13 13 12 9 8 7 7 7 6 6 6 6 6 6 5 4 2 1 2 4 4 4 5 6 8 10 12 11 12 12 12 11 10 9 8 8 8 8 8 7 8 9 8 8 8 9 10 10 9 9 10 11 12 12 11 11 12 12 11 11 12 12 12 11 11 10 9 8 8 8 8 7 6 6 6 6 5 5 5 5 5
9 9 10 11 13 14 13 10 10 9 8 8 7 7 6 6 6 5 4 3 3 3 2 3 3 3 5 7 9 11 12 11 12 12 12 11 11 10 9 9 8 8 9 9 9 9 9 9 9 9 9 9 10 10 11 12 12 12 12 11 10 10 10 9 10 10 9 9 8 7 7 6 6 6 7 9 7 5 5 5 5 6 6 5 5
9 8 9 10 12 14 13 10 11 12 9 10 8 7 7 6 6 4 3 3 4 3 2 3 2 4 6 8 10 12 11 11 12 11 11 11 10 10 9 9 8 8 9 10 9 9 10 10 10 10 10 11 11 12 13 13 13 13 12 11 9 9 8 7 7 7 7 7 7 6 6 7 8 7 7 11 10 6 6 5 6 7 7 7 7
9 8 8 9 10 11 13 11 11 13 11 10 8 7 7 6 6 5 4 4 4 3 2 3 4 7 8 9 11 11 11 11 11 10 10 10 10 10 9 9 8 8 8 9 9 9 10 11 11 11 11 11 11 12 13 13 13 13 12 11 10 9 8 7 6 6 7 6 6 6 7 8 9 8 8 12 10 6 6 6 7 7 8 8 8
8 8 9 9 9 10 12 11 11 14 12 9 8 8 7 7 7 6 5 3 2 1 2 4 6 8 9 10 11 11 10 10 10 9 9 9 9 9 9 9 8 8 8 10 9 9 10 11 11 11 10 10 10 11 12 13 13 13 12 12 11 10 9 7 7 7 7 7 7 8 9 9 9 9 9 11 9 5 5 6 7 8 9 10 10
9 9 9 9 9 10 11 11 11 14 13 10 8 8 8 8 8 6 5 2 1 1 2 4 6 9 9 10 11 10 9 9 9 9 9 9 9 9 9 9 9 9 9 9 10 9 10 11 11 11 11 11 10 11 12 13 13 13 13 13 13 12 11 10 9 9 8 8 9 9 10 10 9 9 9 8 7 5 5 6 8 10 10 10 10
10 10 10 9 9 9 10 10 10 12 11 9 9 8 9 9 7 6 4 3 1 2 3 6 7 9 10 10 10 9 9 9 9 8 9 9 9 9 9 9 9 9 9 9 9 9 10 10 10 10 10 10 10 11 12 13 13 14 14 13 13 12 11 11 11 10 9 10 11 11 12 12 10 9 8 7 5 5 6 7 10 10 10 10 10
11 10 10 9 9 9 10 10 10 12 11 10 11 10 10 9 8 6 4 3 2 3 6 7 7 9 10 10 9 8 9 9 8 8 8 9 9 9 9 10 9 9 9 9 9 8 9 9 9 10 10 9 10 11 12 13 14 14 14 14 13 12 11 11 10 9 10 11 11 12 14 14 12 9 9 6 5 5 6 8 10 11 12 11 11
10 10 9 8 8 8 9 10 13 15 13 12 11 10 10 9 8 6 5 4 3 4 8 8 6 8 9 9 8 9 9 9 8 7 8 9 9 9 9 9 8 8 8 9 9 8 9 9 9 10 10 10 10 11 13 14 15 15 15 15 14 13 12 11 11 10 11 11 11 12 14 14 13 10 8 6 4 5 6 8 10 11 12 12 11
10 9 8 8 8 8 8 9 13 16 15 13 11 10 10 9 7 6 6 5 5 5 7 8 6 7 8 8 8 9 9 8 8 7 8 8 9 9 8 8 8 8 8 8 8 8 8 9 9 9 9 10 11 12 13 14 15 15 15 15 15 14 13 13 13 13 12 12 12 13 13 14 12 10 8 6 3 4 6 8 10 11 12 11 10
8 8 8 7 7 8 7 8 11 14 15 12 10 10 9 8 7 7 6 6 5 4 6 8 7 6 7 8 8 8 8 8 7 7 8 8 8 8 8 8 8 8 8 7 8 7 8 8 8 9 9 10 11 12 13 13 14 14 15 15 15 15 14 14 14 13 13 12 13 13 14 14 13 10 8 7 5 4 7 9 10 11 11 11 10
7 8 8 7 7 7 7 7 9 11 13 11 9 8 8 7 7 7 6 6 4 3 7 7 7 6 6 8 8 7 7 7 7 8 8 7 7 7 8 8 8 8 8 8 8 8 8 8 8 9 9 10 10 12 12 13 14 14 15 15 15 15 15 14 14 14 14 14 14 15 16 16 13 10 8 7 7 6 7 9 11 11 11 11 10
6 8 8 7 7 8 7 7 7 9 10 9 7 7 7 7 6 6 5 5 4 4 7 7 6 6 6 7 7 7 7 7 7 7 8 7 6 7 7 7 8 8 8 8 8 8 8 8 8 9 9 10 10 11 12 13 13 14 14 15 15 15 16 16 16 16 15 16 17 18 18 18 14 11 10 8 8 7 8 10 11 12 11 11 11
7 8 8 8 8 8 8 6 6 6 7 6 5 6 6 7 6 5 4 4 5 5 6 6 5 5 5 6 7 7 7 7 7 7 7 7 6 6 7 7 8 8 9 9 9 9 9 9 9 9 9 9 10 11 11 12 13 14 14 15 16 16 17 18 18 17 17 18 18 19 19 19 16 12 12 11 10 9 10 11 11 12 12 12 12
9 8 8 8 8 8 8 7 6 6 7 6 6 7 6 7 6 6 5 5 5 6 6 6 5 5 6 7 7 7 7 8 7 6 6 6 6 6 6 7 7 9 9 9 9 9 9 9 9 8 9 9 9 11 11 12 13 14 15 15 16 16 17 17 18 18 18 18 18 19 19 20 17 13 13 13 12 13 12 12 13 13 13 13 12
10 9 9 8 9 9 8 8 7 8 8 8 8 7 6 7 6 6 5 5 5 6 6 6 6 6 7 7 7 7 7 8 8 7 6 6 6 6 6 6 7 8 9 9 9 9 9 8 8 8 9 9 10 11 11 12 13 14 14 14 15 15 15 16 16 17 17 18 17 18 18 19 18 15 14 13 13 15 14 13 14 14 15 14 13
12 11 10 9 9 9 9 8 8 8 8 8 8 7 7 7 7 6 5 5 5 5 6 6 6 7 7 7 7 7 8 8 8 8 7 7 6 6 5 6 7 8 8 8 8 8 8 8 8 8 9 9 10 10 11 12 13 13 13 13 13 13 13 14 14 15 15 16 16 17 17 17 17 15 13 14 15 15 15 15 15 16 15 15 14
14 13 12 11 10 9 9 8 8 8 8 8 7 7 7 7 7 6 6 6 6 6 6 6 7 7 7 7 7 7 7 7 8 8 8 7 6 6 5 5 6 6 7 7 7 7 7 7 7 8 8 9 9 10 10 11 12 12 12 12 12 12 12 13 13 14 14 14 14 15 15 15 16 15 13 15 16 12 14 17 16 17 15 15 15
17 15 14 12 11 10 9 9 9 8 8 8 8 8 8 8 8 7 7 7 7 7 7 7 7 7 7 7 6 7 7 7 7 7 7 7 6 6 5 5 5 5 6 5 5 6 6 6 6 7 7 8 8 9 9 10 10 11 11 11 11 11 11 12 12 13 13 14 14 14 14 14 14 15 13 15 16 11 13 18 17 17 15 15 17
19 17 15 13 12 10 10 9 8 8 8 9 8 8 8 8 8 7 7 7 7 7 8 8 8 7 7 7 6 6 6 7 7 7 7 6 6 5 5 4 4 4 4 4 4 4 5 5 5 6 6 7 7 8 8 9 10 10 10 10 10 10 10 11 11 11 12 12 13 13 13 14 14 15 13 13 14 13 15 19 17 18 16 15 18
21 19 17 15 13 11 10 9 8 8 8 8 8 8 8 8 7 7 7 7 7 7 7 8 7 7 7 7 6 6 6 6 6 6 6 5 5 5 4 4 3 3 3 3 4 4 4 5 5 5 6 6 7 7 8 8 9 10 10 10 10 10 10 10 10 11 11 11 12 12 12 13 13 15 14 12 12 14 17 19 18 18 18 16 18
22 20 18 16 15 13 12 10 9 8 7 8 8 8 8 7 7 6 6 5 6 6 6 6 6 6 6 6 5 5 5 5 6 6 6 5 5 5 4 4 3 3 3 3 3 4 4 5 5 5 6 6 7 7 8 8 9 10 11 11 11 11 11 11 11 11 11 11 12 12 13 13 13 15 15 12 10 14 18 19 20 20 20 19 19
22 21 19 18 16 14 14 12 11 10 9 8 8 8 7 7 6 5 5 4 4 4 4 4 5 4 4 4 3 3 3 4 4 5 5 5 5 5 4 4 4 3 3 3 3 3 4 4 5 6 6 6 7 8 8 9 9 10 11 11 12 13 13 13 13 13 12 13 13 13 14 13 14 14 14 13 13 14 15 18 21 22 22 21 22
23 22 21 18 16 15 15 14 13 12 11 10 9 8 8 7 6 5 4 3 3 2 2 2 2 2 2 2 2 2 2 2 2 3 4 4 4 4 4 4 4 3 3 3 3 3 4 4 5 5 6 6 7 8 9 9 10 11 11 12 13 13 13 14 14 14 14 14 14 14 14 14 14 15 15 15 16 16 15 15 18 19 20 19 22
23 22 21 19 18 17 16 16 15 14 13 12 11 10 9 8 7 6 6 4 3 2 1 1 1 1 1 0 1 0 0 1 1 1 2 2 2 3 3 3 4 4 4 4 4 4 4 4 5 5 6 7 7 8 8 9 10 10 11 11 12 13 13 14 14 15 15 15 15 15 15 15 15 16 16 17 18 18 18 17 16 16 17 16 18
23 22 21 21 20 18 18 17 16 15 15 14 14 13 11 11 10 9 8 7 5 4 4 4 4 3 2 2 2 2 2 2 2 2 2 2 2 2 3 4 4 5 5 5 5 6 6 6 6 6 6 7 7 8 9 9 10 11 11 11 12 13 13 14 14 15 16 16 16 16 16 17 17 17 18 18 19 19 20 20 18 17 16 16 16
24 23 22 21 20 19 19 18 17 16 16 16 16 14 13 13 12 11 10 8 7 6 7 6 6 5 5 4 4 4 4 3 4 4 4 3 3 3 4 4 5 6 6 7 7 7 7 7 7 8 8 8 8 10 10 10 10 11 12 13 13 14 14 14 15 16 17 17 17 16 17 17 18 19 19 20 20 20 20 20 20 19 19 18 18
24 23 23 21 21 20 20 19 18 18 17 17 17 16 15 15 13 12 12 11 9 9 10 9 8 8 7 7 7 6 6 6 6 6 5 5 6 5 5 6 6 7 7 8 8 8 8 8 8 9 10 9 9 11 12 11 10 11 13 14 15 15 16 16 16 17 17 17 17 17 17 18 19 20 21 21 21 21 21 20 20 20 20 21 21
24 24 24 22 22 22 20 18 19 19 19 18 17 17 16 15 14 14 13 12 12 12 12 11 11 10 9 9 9 9 8 8 8 8 7 7 8 7 7 7 8 9 9 9 9 9 10 9 9 10 12 11 11 12 13 13 11 10 11 14 16 17 17 17 18 18 18 18 17 18 19 20 21 22 22 22 22 22 21 21 21 21 21 22 22
26 25 22 22 23 22 20 19 19 19 19 18 17 17 16 16 16 15 14 14 14 14 14 13 12 11 11 10 10 10 10 9 9 10 10 10 10 10 10 10 10 10 11 11 11 11 12 11 11 12 13 13 13 14 16 17 16 14 13 14 18 19 18 19 19 19 19 19 19 20 21 22 22 23 23 23 23 23 23 23 23 23 23 23 23
26 23 22 22 22 21 21 20 20 20 20 18 17 16 16 16 16 16 15 15 15 15 15 14 13 13 12 11 10 10 9 10 10 10 11 11 11 11 12 12 12 12 13 13 13 13 13 13 13 14 15 14 15 17 18 19 19 18 17 17 19 20 20 21 19 19 19 19 20 22 22 22 22 22 22 21 21 22 23 23 24 24 24 23 24
25 24 24 24 21 20 21 22 22 22 21 19 19 18 17 17 17 17 16 16 16 15 14 14 14 14 13 12 11 11 10 10 11 11 12 12 12 12 13 13 13 14 14 15 15 15 15 15 15 16 16 16 17 19 20 21 20 19 17 18 20 21 22 22 20 18 19 20 21 22 21 20 20 20 20 19 20 21 22 23 23 24 23 23 23
25 25 25 24 22 21 21 22 23 23 23 22 21 19 18 18 18 17 17 16 16 15 15 14 14 14 14 14 13 12 11 11 12 13 13 13 13 13 13 14 14 15 15 16 16 17 18 17 16 17 18 17 17 19 21 23 23 21 19 19 20 20 20 19 18 18 19 21 21 21 21 19 18 18 18 18 19 20 21 22 22 22 22 22 23
26 26 26 25 24 23 22 22 23 24 24 23 22 20 19 19 19 18 17 17 16 16 15 15 15 15 16 15 14 13 12 12 12 13 13 14 14 13 13 14 15 16 17 17 17 17 17 18 18 19 20 18 17 18 18 19 20 19 19 19 17 17 16 16 16 17 18 19 19 18 17 16 16 17 18 19 20 20 21 21 22 22 22 22 23
27 27 27 27 26 25 24 23 23 23 24 24 23 21 20 20 19 18 17 17 17 16 15 15 16 16 16 15 14 13 12 12 12 13 13 14 15 14 14 14 15 15 16 17 17 17 18 18 18 18 19 16 14 15 14 15 17 18 18 17 15 15 16 16 16 16 18 18 16 14 15 16 18 18 18 19 19 19 19 20 20 21 22 23 23
29 29 29 28 28 27 26 24 23 23 23 23 23 22 21 19 19 19 18 18 18 16 16 17 17 17 17 16 14 13 13 13 13 13 14 14 15 16 15 14 13 13 14 14 14 16 16 15 15 14 12 12 12 13 15 17 19 19 17 15 15 16 18 17 15 16 18 16 14 16 19 19 18 17 19 19 19 18 19 20 20 20 21 23 24
31 31 30 30 30 29 28 26 25 24 23 23 23 23 22 21 21 20 20 20 19 18 17 18 18 18 18 17 15 14 15 14 14 15 14 14 14 16 16 14 14 14 14 15 15 15 13 10 12 11 8 9 12 14 17 19 19 19 18 17 17 18 18 17 16 17 17 16 17 20 20 18 18 20 21 22 21 20 21 23 22 21 21 22 24
31 32 32 32 32 31 30 29 28 26 24 24 24 24 23 23 23 22 22 22 20 19 18 19 18 18 18 17 16 16 16 15 15 15 15 15 14 16 16 15 16 15 15 17 16 14 11 10 11 10 9 10 12 14 16 18 20 21 21 20 19 21 20 19 18 16 16 18 20 21 18 18 20 23 23 23 23 23 23 24 24 23 22 22 22
32 33 33 34 33 33 32 32 30 28 27 26 26 25 25 24 24 24 23 22 20 20 19 19 18 18 18 18 18 17 17 17 16 15 15 15 15 16 16 16 16 16 16 16 15 14 12 11 12 12 12 12 12 12 14 18 21 23 25 25 23 23 22 21 18 14 16 20 21 19 19 21 23 24 24 24 23 23 23 24 24 24 23 22 22
32 32 33 33 33 33 34 33 31 30 29 27 26 26 25 24 23 23 21 20 19 19 19 18 18 18 17 18 18 17 17 17 15 15 15 15 16 16 16 17 17 18 17 15 15 14 11 11 13 13 12 14 13 11 14 19 20 22 26 27 26 25 24 21 17 18 22 21 19 20 22 23 23 23 23 23 23 23 23 23 23 23 23 22 22
31 32 32 32 33 34 34 34 33 33 31 28 27 26 24 22 21 21 20 19 18 18 17 17 18 19 19 18 17 16 16 15 14 15 16 16 15 14 14 14 16 17 16 15 14 10 8 10 12 11 11 13 14 13 15 16 17 20 22 22 25 27 26 21 21 24 22 19 19 22 24 23 22 22 23 23 23 22 22 23 23 23 23 24 23
32 33 33 33 34 34 35 34 34 33 32 30 28 25 23 21 21 20 20 20 19 19 18 19 19 19 20 19 18 17 16 14 15 16 17 14 12 13 13 12 13 15 14 14 10 5 7 10 8 9 12 14 15 16 14 13 15 17 17 18 21 22 20 22 28 26 19 18 20 20 21 21 21 22 22 23 23 22 22 23 23 23 24 25 25
34 33 33 33 33 34 34 34 34 34 32 30 28 26 24 23 23 23 23 23 22 22 21 21 20 19 18 18 18 17 16 17 15 14 14 13 13 16 14 12 14 13 11 9 5 3 6 8 8 10 12 15 15 15 15 14 15 15 16 18 17 15 17 23 28 24 20 22 21 18 18 18 20 21 22 22 22 22 24 24 23 24 25 25 26
34 33 32 33 33 32 32 33 34 33 32 30 28 27 27 26 26 25 25 25 24 24 23 21 20 18 16 15 16 15 16 16 14 14 15 12 12 14 12 12 14 12 9 8 7 9 10 11 12 12 12 16 16 16 17 18 17 17 18 18 15 13 18 22 23 23 26 27 24 21 19 18 19 21 21 22 22 23 24 24 25 25 25 25 26
32 32 32 33 32 32 32 32 33 32 31 30 29 29 29 28 27 27 26 26 25 24 22 20 18 16 16 16 17 16 16 15 15 17 15 9 10 12 11 13 14 12 12 12 13 14 14 14 15 14 15 19 19 18 19 18 17 17 16 17 15 14 16 20 22 26 28 28 27 24 22 22 23 23 23 22 23 24 24 24 25 25 25 27 28
28 30 32 32 32 32 32 32 32 32 31 31 30 30 29 29 28 28 27 27 25 23 21 20 18 17 17 18 18 17 17 16 16 16 11 9 14 15 15 16 15 14 14 13 14 14 13 14 16 16 18 20 19 18 16 14 13 12 11 12 13 13 14 17 20 22 24 28 31 28 26 28 27 27 27 25 25 27 27 26 26 25 26 27 28
25 28 30 31 31 31 32 32 31 32 31 31 31 31 30 30 29 29 29 28 25 24 23 22 20 19 19 19 19 18 17 17 17 16 13 14 18 17 17 16 14 15 15 14 15 15 14 15 16 16 16 15 13 10 9 8 9 9 9 9 10 12 14 15 16 18 20 25 30 32 32 33 33 31 29 29 30 29 28 28 26 25 27 27 28
26 26 27 29 31 32 32 32 32 32 31 31 31 31 31 31 31 31 30 29 27 25 24 23 22 21 21 21 21 19 18 18 18 16 15 17 19 18 17 17 16 16 15 15 15 14 14 14 13 11 9 7 5 5 6 7 8 9 10 10 11 12 13 14 15 17 20 22 27 31 34 35 38 36 33 33 33 31 31 30 28 28 29 30 31
27 27 27 28 31 32 33 33 32 32 31 32 31 31 32 32 32 32 31 29 28 27 26 25 23 22 22 22 22 21 19 18 17 16 15 15 17 17 16 16 16 15 13 12 11 9 9 7 5 4 3 4 5 6 7 7 8 9 10 11 12 12 13 14 15 17 19 21 26 31 32 34 37 38 37 37 35 34 34 31 30 32 33 34 35
Wind_Direction
143 136 145 158 154 147 146 144 141 142 132 126 118 107 102 105 115 120 115 108 100 90 83 70 61 60 61 69 85 101 108 110 111 114 115 120 122 115 112 114 109 109 114 107 106 95 71 61 58 56 57 60 60 63 66 66 64 64 65 67 69 69 71 71 72 79 85 84 82 80 75 71 67 67 62 57 72 85 82 81 78 75 74 68 58
138 136 144 159 162 154 151 153 150 152 150 138 126 120 116 119 123 132 134 125 119 89 74 49 41 52 56 70 89 103 110 112 110 112 114 115 117 118 114 113 111 110 117 105 89 83 75 69 65 62 60 59 60 65 67 66 65 66 66 69 73 74 74 72 74 79 82 82 82 83 82 78 72 69 63 54 54 69 76 79 74 64 59 48 36
139 137 144 158 169 166 155 156 162 159 162 156 143 139 130 129 130 139 147 145 142 82 64 53 47 49 60 82 99 110 110 110 107 106 107 110 110 112 111 108 108 103 102 96 85 80 77 73 69 66 63 62 64 70 70 68 66 64 65 67 74 79 80 80 82 85 85 81 77 75 73 74 71 62 56 49 38 40 45 56 55 40 36 25 15
142 138 144 155 173 176 161 158 173 172 171 169 154 143 136 139 139 141 145 146 124 86 74 66 57 65 89 105 105 107 106 105 105 106 104 104 104 103 101 96 98 98 92 88 84 79 77 71 68 67 65 64 66 69 70 67 63 60 59 62 70 79 83 86 90 90 86 78 71 64 57 53 45 52 51 34 26 27 22 27 28 19 15 5 356
144 143 143 152 172 179 171 166 178 180 176 172 157 146 149 154 153 153 152 147 118 91 82 73 87 107 108 109 102 102 102 101 101 103 104 103 105 104 99 91 88 88 85 84 82 77 74 69 69 70 68 66 63 62 63 61 58 56 55 58 63 70 74 77 80 74 64 59 56 48 45 37 27 42 41 22 19 23 19 8 5 5 3 357 349
145 145 142 149 164 171 173 170 175 179 177 172 165 161 164 166 160 157 155 140 122 95 87 96 111 120 112 107 105 105 102 101 98 99 103 104 104 102 99 94 86 82 83 86 83 74 70 68 69 72 71 68 63 59 58 54 51 52 54 59 63 65 66 63 57 46 37 32 32 25 21 17 16 21 11 7 13 27 29 20 13 8 2 354 346
144 143 139 144 157 161 168 171 172 177 177 170 167 169 167 167 163 161 161 140 126 113 98 102 109 120 115 107 109 108 104 101 100 95 94 96 94 94 96 94 87 81 81 85 82 71 67 67 67 69 68 66 63 57 56 53 49 50 53 58 61 61 59 54 43 31 22 14 12 9 3 358 355 355 350 355 7 28 31 19 10 2 358 352 347
141 139 137 142 154 158 164 168 170 176 177 169 165 171 168 169 175 175 178 181 166 140 124 117 113 120 116 106 105 105 101 98 96 90 83 83 84 88 91 90 84 80 79 80 79 67 64 65 64 65 64 63 58 51 53 52 48 48 51 53 52 51 46 41 34 27 20 16 14 9 4 358 352 350 351 356 9 30 26 11 3 359 1 0 359
140 136 139 145 152 154 153 155 161 166 167 165 167 173 173 177 185 183 184 196 179 144 148 138 121 116 115 109 105 101 99 94 89 85 80 78 79 82 82 82 79 77 75 77 79 68 62 63 62 62 63 59 50 47 48 46 45 46 49 49 47 44 40 35 30 24 21 20 17 13 12 8 8 11 15 20 30 32 15 6 3 5 12 13 11
139 137 141 148 149 149 145 147 150 146 148 162 173 177 178 181 183 182 185 191 179 159 150 140 119 107 110 111 107 101 101 99 92 84 83 80 78 80 79 79 77 75 75 77 79 69 62 64 62 61 58 50 44 44 43 40 40 42 44 45 43 40 36 34 26 20 18 16 15 13 13 12 15 25 27 32 44 28 8 3 4 11 16 19 16
139 141 142 147 146 144 145 154 150 144 154 166 174 179 177 178 178 178 181 177 175 161 144 135 114 103 105 106 104 99 101 106 103 88 83 84 81 82 81 81 80 78 76 77 79 70 63 64 61 58 52 43 39 38 37 36 36 37 38 39 38 35 32 31 24 20 17 16 17 14 14 13 16 24 26 32 41 17 2 5 9 15 15 19 20
140 140 139 142 141 140 145 159 156 155 162 162 172 181 174 174 171 168 167 160 170 162 141 134 113 102 100 99 99 97 100 104 107 96 83 81 80 82 84 83 80 77 73 73 76 69 62 64 61 54 46 38 35 35 34 33 34 35 36 36 35 33 30 27 22 22 22 22 19 14 15 15 18 22 19 21 21 5 6 13 17 17 15 16 18
138 136 137 138 137 137 144 158 160 162 163 164 177 175 166 168 163 158 158 156 167 155 125 122 111 102 99 101 99 100 103 98 101 102 91 82 77 80 85 82 77 76 72 69 74 70 64 63 58 51 42 35 33 33 33 32 33 34 34 35 35 34 31 26 21 22 23 22 19 17 18 16 19 23 19 22 23 11 10 17 18 16 16 14 13
140 136 137 137 137 137 142 154 160 164 167 174 177 163 157 159 158 156 155 157 158 123 102 104 108 102 99 103 104 111 114 100 92 98 100 94 85 81 83 79 75 75 70 68 70 69 66 63 55 48 39 31 31 31 31 31 32 32 32 34 35 36 33 29 26 25 25 23 24 25 23 20 22 28 22 14 9 6 12 18 16 15 15 12 11
150 141 139 139 138 138 139 147 158 166 175 181 165 150 153 153 157 155 150 157 142 114 105 101 105 102 98 97 98 106 109 106 94 95 103 102 95 85 82 76 73 72 68 66 65 64 61 60 53 45 36 28 28 30 31 31 31 32 33 35 35 35 33 32 31 30 30 29 29 29 27 25 26 28 19 7 359 2 13 17 14 12 11 8 6
156 145 141 142 140 140 139 139 149 160 171 177 159 149 150 148 149 148 143 145 130 113 109 103 101 98 96 92 89 91 96 108 107 105 104 99 95 85 81 72 70 69 66 64 61 61 55 54 50 42 35 28 27 29 34 34 33 33 33 35 35 34 33 31 31 32 33 32 31 29 29 28 28 27 18 14 12 11 10 9 8 8 5 1 358
158 150 144 143 143 139 139 135 140 145 149 151 151 152 146 142 142 143 139 130 120 109 107 103 100 96 99 101 96 91 90 97 99 103 102 101 95 84 84 73 70 68 65 64 59 58 53 50 47 40 35 30 26 25 30 33 32 33 33 34 34 34 33 32 31 31 33 32 30 29 28 27 27 27 18 15 14 12 7 1 360 359 356 351 349
161 155 149 145 143 138 140 136 139 141 142 144 145 149 142 141 140 142 140 129 121 112 111 109 108 109 110 111 103 93 85 84 84 83 88 102 102 87 86 74 67 65 64 64 61 59 54 50 46 41 37 33 29 23 24 27 29 30 31 33 34 34 32 31 30 29 30 29 28 26 27 24 23 25 20 13 10 9 8 4 359 354 351 349 345
166 161 155 149 145 138 141 138 143 142 141 147 145 147 143 143 144 145 141 133 129 119 120 118 118 116 112 110 100 92 86 85 83 79 82 95 100 90 84 75 67 62 62 62 62 63 57 52 46 42 39 36 32 26 21 22 26 27 29 29 30 30 29 28 26 25 25 25 25 22 23 19 16 19 14 6 3 9 14 10 3 357 355 354 346
172 169 163 155 151 143 143 140 143 143 143 148 146 149 145 144 143 143 137 130 128 120 121 119 118 115 109 107 100 97 93 91 92 89 89 91 93 87 80 72 66 62 60 59 58 60 59 53 46 41 38 36 32 26 19 17 19 21 23 23 23 23 22 22 19 18 17 17 18 17 17 14 11 9 3 358 354 2 13 8 1 355 354 354 345
178 175 171 162 158 151 149 145 145 145 145 146 146 146 141 139 135 134 131 125 121 115 112 108 106 108 107 109 106 106 103 101 100 98 95 92 89 83 79 72 66 64 60 58 56 53 55 49 43 36 30 29 24 19 13 9 8 10 13 15 15 14 13 14 13 10 9 8 8 8 8 6 5 1 356 354 349 348 357 356 353 349 344 349 348
183 180 178 173 167 161 157 153 151 149 147 146 146 144 138 135 132 130 126 118 116 110 106 103 100 101 101 105 106 106 105 105 102 99 97 91 87 82 77 73 66 64 60 54 51 47 45 41 35 28 20 16 12 8 5 3 0 359 2 4 6 5 5 6 5 4 2 1 359 359 359 358 357 354 349 349 349 340 337 341 344 343 336 336 344
189 185 183 181 176 173 169 163 160 156 154 153 150 148 144 140 135 129 121 115 111 107 106 104 101 98 96 96 97 101 102 102 101 97 96 92 90 85 76 73 66 61 55 45 40 38 34 29 26 20 13 7 3 360 357 358 357 353 353 355 357 358 357 356 356 356 355 354 352 352 352 351 350 347 343 342 343 328 324 332 334 336 334 330 339
193 191 188 187 185 183 180 176 173 170 166 163 162 159 155 150 144 136 127 118 109 106 104 102 102 98 96 95 93 102 105 106 107 103 101 98 94 88 82 74 65 59 47 32 28 29 26 19 16 11 7 4 0 357 355 355 354 352 350 349 349 350 349 348 348 347 347 347 346 346 345 346 344 342 340 337 331 319 319 325 326 334 338 335 336
194 195 195 194 193 192 190 187 185 183 181 178 173 172 171 166 159 154 147 136 123 112 104 98 98 97 98 95 96 107 112 115 113 112 108 103 92 82 81 73 63 56 41 30 21 18 19 13 8 4 360 357 355 355 353 351 350 348 346 344 344 343 342 341 341 341 341 342 341 340 339 339 338 337 335 331 325 319 319 320 324 333 338 334 329
197 199 200 200 200 200 198 196 195 194 193 191 189 191 190 186 184 180 179 171 156 136 119 107 96 102 102 92 106 110 109 114 105 110 109 100 86 72 66 53 41 39 30 21 11 4 5 2 358 353 349 348 349 348 347 346 344 343 341 340 338 337 336 334 334 335 335 335 335 334 333 332 331 330 328 325 323 322 321 319 320 324 327 324 318
202 203 205 205 205 206 206 203 203 202 202 202 202 205 204 204 207 206 205 204 206 202 196 201 211 201 167 154 170 106 48 68 28 49 76 72 60 53 43 20 11 8 1 356 349 342 338 338 338 336 335 334 334 334 334 334 333 331 330 329 328 327 326 325 325 327 327 328 329 329 329 328 328 327 325 323 321 321 320 316 314 312 313 314 311
207 208 208 209 210 211 212 212 210 208 209 210 211 211 211 214 218 220 219 219 225 230 233 234 236 241 239 240 259 286 300 311 318 325 337 346 359 5 358 352 348 342 339 332 328 327 324 324 322 320 323 324 323 320 319 322 321 319 317 317 317 316 316 316 317 318 320 322 324 327 327 327 328 327 326 324 322 320 318 315 313 310 309 312 309
210 211 211 212 212 214 217 218 217 215 214 216 218 218 218 220 222 226 228 230 235 236 239 242 242 244 245 248 255 268 279 287 290 297 309 311 312 323 326 324 324 325 324 318 317 318 316 317 317 319 320 318 320 320 320 323 322 322 319 318 317 315 314 315 315 314 316 318 320 323 325 325 326 326 324 323 322 321 319 316 314 313 312 314 311
212 214 214 215 214 216 218 220 222 221 220 219 221 223 224 226 227 229 231 237 240 242 244 247 250 250 248 248 248 251 257 262 269 278 286 291 296 303 304 304 307 307 306 305 306 306 306 308 312 314 310 309 318 320 320 321 321 323 322 323 323 318 316 314 312 312 313 314 315 317 319 321 321 321 321 320 321 320 319 317 314 313 313 313 312
214 215 216 216 216 218 219 220 222 224 225 223 223 225 228 230 232 233 233 238 241 244 249 251 255 257 254 250 247 247 251 256 261 268 273 276 283 287 287 291 294 292 290 291 292 295 298 302 305 304 303 310 319 314 309 307 307 311 318 323 319 314 314 313 312 312 311 311 311 311 314 317 317 317 316 316 317 318 317 315 312 311 311 310 308
216 216 216 218 220 221 222 221 222 225 227 227 227 227 230 232 235 236 236 238 240 244 250 254 258 259 256 252 251 251 253 259 261 264 267 267 271 274 275 278 279 281 282 282 282 287 292 296 298 299 303 311 313 309 306 306 308 312 317 318 314 314 316 314 314 313 312 312 311 311 313 315 316 315 313 312 312 313 314 313 311 309 308 307 305
218 217 218 221 223 225 226 226 225 227 229 229 231 231 232 234 236 238 237 237 239 243 247 252 256 256 253 250 252 253 255 261 264 266 265 264 266 267 269 270 269 272 275 277 278 280 284 288 292 296 300 304 304 305 308 310 314 317 320 319 316 318 317 313 313 313 313 313 312 312 314 315 317 316 314 312 311 311 312 311 310 307 304 304 305
220 220 221 223 224 227 229 230 230 230 232 233 233 233 234 235 237 238 238 238 240 242 244 246 251 252 250 250 252 254 257 262 265 268 269 268 268 267 270 270 271 272 273 276 277 277 277 279 286 291 295 300 302 306 310 310 312 315 317 315 311 312 313 314 313 311 312 312 313 315 318 318 318 318 317 315 315 314 313 311 308 305 304 303 304
222 222 224 226 227 230 233 234 234 234 235 236 236 236 236 236 237 237 238 240 241 241 241 242 244 247 248 249 250 253 256 261 266 270 272 272 274 276 278 279 279 279 279 279 280 282 283 283 285 288 291 294 297 305 309 307 308 311 310 308 306 308 317 325 321 315 313 313 316 318 318 319 321 323 322 319 317 315 313 311 308 306 303 301 303
224 224 225 227 230 232 235 237 236 236 235 237 239 239 238 236 237 236 237 240 242 242 241 241 240 241 243 245 247 251 256 262 269 275 280 283 285 285 286 286 285 285 288 291 290 288 288 290 291 293 295 297 302 310 312 312 316 317 316 315 315 319 331 337 332 327 325 324 325 325 324 326 326 324 321 319 317 315 315 313 311 307 302 301 301
227 227 227 228 230 231 235 238 237 236 236 236 238 239 237 237 238 238 238 239 242 242 242 243 240 238 240 243 246 252 258 263 268 273 280 286 288 292 295 293 291 292 297 304 306 301 297 298 301 302 304 309 317 322 326 331 334 332 330 334 335 335 339 338 336 337 336 333 333 333 332 329 324 322 322 323 319 318 318 317 314 307 302 300 300
231 230 231 232 232 233 236 239 240 238 236 235 236 237 236 236 238 239 239 239 240 242 245 245 243 242 243 244 248 256 262 266 272 274 275 279 284 292 298 301 301 301 303 310 320 321 312 311 318 319 314 318 325 332 339 340 338 335 337 343 341 336 335 332 331 336 335 330 327 327 329 328 326 327 327 326 321 317 318 319 317 312 307 303 301
232 232 233 235 236 237 237 240 242 240 237 236 235 235 235 234 236 236 236 235 235 238 242 245 245 247 248 250 255 261 265 269 274 274 273 275 277 283 291 300 303 305 311 311 320 328 323 322 334 336 326 320 327 334 335 332 331 334 336 335 332 328 328 327 327 332 331 326 324 326 329 330 329 330 329 327 322 317 315 317 320 320 316 310 306
233 233 234 235 237 238 239 239 240 240 239 236 233 232 231 231 232 233 234 234 235 237 241 245 246 248 252 255 257 260 262 263 266 270 274 277 278 281 289 297 298 301 307 304 308 320 322 326 334 336 330 323 326 328 327 325 323 328 332 329 327 328 327 327 327 328 327 327 328 329 331 329 330 332 332 331 328 324 321 323 327 328 326 324 319
233 233 233 234 235 237 238 239 239 240 238 234 231 230 228 228 229 231 234 237 239 242 244 247 250 254 257 258 258 260 261 260 261 266 272 279 281 283 287 290 292 293 293 292 297 305 310 313 310 315 321 317 318 320 319 317 315 323 328 326 326 326 325 329 333 331 330 330 331 332 333 333 335 337 337 338 339 336 335 336 338 339 339 339 336
233 231 231 231 233 235 236 238 238 239 237 233 230 230 229 229 231 234 238 243 245 247 250 254 260 264 264 261 258 259 261 261 259 261 264 266 269 274 279 281 282 284 284 285 289 292 300 308 302 303 308 306 307 310 314 313 313 321 323 321 323 322 325 334 338 334 333 334 335 336 338 340 341 342 345 347 347 346 348 348 348 349 349 347 346
233 232 232 231 231 232 234 235 235 236 234 231 229 230 231 233 237 240 243 248 250 252 256 258 261 262 263 262 259 255 258 258 257 263 264 260 266 274 276 276 279 285 288 285 282 280 291 305 303 300 298 298 301 305 313 316 314 316 316 319 322 321 326 333 331 331 336 339 342 343 344 347 348 348 351 352 349 351 354 352 351 352 351 349 350
233 232 230 230 230 229 230 232 232 233 232 230 229 231 234 238 242 244 246 248 248 249 251 252 253 253 254 258 258 256 258 258 255 259 259 258 273 281 280 285 289 292 290 284 282 280 292 299 294 290 294 295 299 301 304 307 308 310 315 321 322 320 325 327 325 330 337 340 346 349 348 348 350 351 352 350 348 351 352 350 349 350 350 349 350
234 232 230 230 230 229 229 229 231 231 230 229 230 232 236 239 240 242 243 242 242 242 243 244 246 248 252 259 261 258 257 257 258 262 261 257 263 266 269 281 287 288 286 282 288 297 293 289 276 279 290 292 294 295 293 295 300 301 307 315 319 318 318 320 322 324 325 332 343 352 351 349 348 348 347 346 345 346 347 347 348 349 348 348 348
235 233 233 232 232 232 230 230 230 231 231 230 231 232 235 237 239 240 240 239 239 238 239 242 246 252 260 266 264 256 252 252 255 264 264 259 258 258 257 264 270 273 275 276 282 282 275 270 272 275 284 290 291 288 287 292 296 296 299 305 309 306 307 313 317 316 317 327 339 346 348 347 344 344 345 344 342 344 345 344 346 348 348 347 348
236 234 234 234 234 234 233 232 231 232 232 232 231 232 234 237 239 241 242 243 243 242 245 249 255 263 265 263 261 255 251 247 243 247 250 259 269 262 257 261 262 261 269 277 281 278 271 269 273 272 277 289 295 292 292 298 301 302 304 306 306 301 300 307 311 312 315 323 334 341 344 343 344 346 347 346 344 343 343 344 347 348 346 346 347
238 235 234 233 233 234 234 234 234 233 233 233 233 233 234 236 239 241 243 244 245 247 251 254 258 262 259 258 258 255 253 249 245 244 244 256 263 257 258 262 258 257 265 270 270 269 266 265 269 272 279 289 296 296 299 307 312 314 317 315 314 314 315 316 315 316 317 320 328 338 341 340 341 345 346 346 344 344 343 344 348 348 346 346 347
240 238 236 234 233 233 234 235 235 234 234 235 235 236 236 238 241 243 244 245 246 248 250 253 253 254 254 253 252 253 253 250 248 251 246 242 246 248 253 254 249 251 254 256 262 267 267 270 276 283 289 293 297 303 314 327 330 333 336 333 331 331 333 333 328 327 328 325 328 335 339 336 335 339 343 342 341 343 344 345 348 350 349 349 350
240 240 237 234 232 232 233 234 234 234 235 236 237 238 238 240 242 243 244 244 246 247 248 250 250 251 251 248 247 250 251 251 250 251 249 241 238 242 246 244 245 249 253 259 267 269 272 279 285 289 296 305 322 346 352 352 348 347 348 345 343 340 338 338 334 333 334 331 329 332 336 335 332 334 337 338 339 341 342 344 348 351 351 352 352
238 238 237 233 231 231 231 232 234 234 234 235 236 238 239 240 242 243 244 244 245 247 248 249 249 250 250 246 246 246 247 253 253 249 254 249 239 240 243 242 247 253 259 266 268 268 273 279 287 300 332 353 2 9 7 3 357 353 351 346 343 341 338 339 340 339 338 336 332 331 333 332 328 329 333 334 335 336 339 342 346 349 351 351 351